Lid_Strength_Index
10 10 12 13 13 12 12 13 14 13 14 14 13 13 12 11 11 10 9 10 10 12 12 13 13 13 13 13 14 13 13 13 13 13 13 13 13 12 12 12 12 12 12 12
10 14 13 13 13 14 14 15 14 13 15 14 14 14 12 12 13 11 10 10 11 12 13 13 13 14 14 14 14 14 14 13 13 13 13 13 13 13 13 12 12 12 12 12
12 14 14 14 14 14 14 16 16 17 15 15 16 12 13 15 14 13 12 10 11 12 13 14 14 14 14 15 15 14 14 14 14 14 14 14 13 13 14 14 14 13 13 12
14 14 15 14 15 15 16 15 16 17 16 16 16 15 13 15 15 15 14 13 12 13 13 13 14 14 14 15 15 15 14 14 14 14 15 15 15 16 15 14 13 13 13 13
15 15 15 15 16 15 16 15 16 17 17 18 17 17 13 16 14 15 14 14 13 13 13 14 14 14 14 15 14 14 14 14 14 14 14 15 15 15 14 14 14 13 13 13
15 14 14 16 15 15 15 17 17 17 17 17 22 19 14 13 15 15 15 14 14 14 14 14 14 15 15 14 14 14 14 14 14 14 14 15 15 15 15 15 15 14 14 13
15 15 15 15 16 15 15 14 18 18 18 16 24 20 15 14 15 15 15 14 14 14 14 14 15 15 15 15 15 14 15 15 15 15 15 15 15 15 15 15 15 15 14 14
16 14 16 16 17 17 17 17 15 20 19 18 25 19 14 15 16 16 16 15 15 15 14 15 15 15 15 15 15 14 15 16 15 15 15 15 15 15 15 15 15 15 14 14
16 15 16 17 16 17 17 16 18 20 28 22 18 17 14 16 16 16 16 16 15 15 14 15 15 15 16 15 15 16 16 16 16 16 15 15 15 15 15 15 14 14 14 14
18 16 17 17 17 17 17 17 17 18 19 20 19 20 17 14 14 16 16 16 15 15 15 15 16 16 16 16 17 17 16 17 16 16 15 15 15 15 15 15 15 15 14 14
18 16 15 18 18 16 18 18 19 19 19 20 20 17 14 15 15 15 16 16 16 17 16 16 17 17 17 17 17 17 17 17 16 16 16 16 16 15 15 15 15 15 14 14
16 18 18 15 18 17 18 17 17 18 19 21 22 20 17 16 19 20 17 17 17 19 19 19 19 18 18 18 18 18 17 17 17 16 16 16 16 16 16 16 15 15 15 14
16 17 17 15 19 19 20 19 19 20 20 20 20 18 18 20 19 18 19 18 18 20 20 20 19 19 19 19 18 18 17 17 17 17 17 17 17 16 16 16 16 15 14 13
16 19 17 17 14 18 20 20 19 19 20 19 19 18 16 15 15 15 18 20 21 21 21 20 20 20 20 19 19 19 18 18 18 18 18 18 17 17 17 17 16 14 14 14
17 19 21 20 20 20 20 20 20 22 20 21 18 19 17 15 16 19 22 22 21 21 21 21 21 21 21 20 20 20 19 19 18 19 19 19 18 18 17 16 15 15 14 13
18 20 24 23 21 22 23 20 20 21 20 21 20 21 16 17 21 20 20 21 21 22 21 21 21 21 21 21 20 20 20 20 19 20 20 19 19 18 17 17 17 16 15 15
20 21 22 21 25 24 21 21 20 21 20 20 22 16 20 18 18 20 21 22 22 22 22 22 21 22 21 21 21 21 21 20 20 21 21 20 20 19 19 18 17 17 16 16
23 22 23 22 23 20 14 19 18 19 19 20 19 18 18 19 20 21 22 21 22 22 21 22 21 22 20 20 21 21 21 20 21 21 21 21 20 20 19 18 18 17 16 17
20 19 21 23 25 19 16 21 20 19 19 17 19 18 18 21 21 22 21 21 21 21 21 21 20 20 20 21 20 21 21 21 22 22 22 20 20 20 19 19 18 17 17 17
22 21 20 26 23 21 17 20 20 19 20 19 18 18 19 21 20 20 21 21 21 21 21 20 20 20 20 20 20 20 21 22 22 22 21 20 19 20 20 18 18 18 17 17
23 23 23 24 23 21 17 20 20 20 16 19 19 19 20 20 20 21 21 21 21 21 21 20 20 21 21 20 20 21 21 22 21 20 19 19 19 19 18 18 18 17 17 17
19 23 24 24 24 22 18 21 19 15 19 19 20 20 21 21 22 22 22 22 22 22 22 21 22 22 21 21 22 22 23 22 21 20 20 20 19 18 17 18 17 17 17 17
21 17 19 20 19 16 18 16 17 18 18 20 20 21 20 22 22 22 23 23 23 23 22 22 22 23 22 22 22 24 23 23 22 22 21 20 19 18 18 18 18 17 17 16
21 19 19 18 15 16 15 16 17 18 19 20 20 21 21 22 22 23 23 23 23 23 23 23 24 24 23 23 23 24 24 23 23 22 21 20 19 19 18 18 17 18 17 17
18 19 18 19 16 15 14 14 16 20 20 21 21 21 21 22 23 23 23 24 23 23 23 23 24 24 25 24 24 24 24 24 23 21 20 20 19 19 18 18 18 18 17 16
19 17 17 16 12 14 16 19 19 21 21 21 22 23 22 22 23 23 24 24 24 24 24 24 24 25 25 25 25 25 24 23 23 22 21 20 20 19 19 19 18 15 15 14